period_start,C,m1,H,J0,J1,J2,J3,J4,J5,JA,JB,JC,JD,JJ,JK,JN,#
2016-11-14 00:22:19,0.00,0.00,0.00,26.66,25.25,24.68,14.22,45.63,1037.10,2043.47,3585.07,3165.11,3591.49,600.42,601.01,0.01,0000 0000 0000 0000 000000
2016-11-14 00:27:34,0.00,0.00,0.00,26.63,25.19,26.27,14.13,44.98,1037.13,2040.75,3578.29,3160.42,3586.10,599.43,600.18,0.06,0001 0000 0000 0000 000000
2016-11-14 00:32:35,0.00,0.00,0.00,26.64,25.13,27.03,14.21,44.65,1037.13,2040.03,3576.65,3159.98,3585.12,599.57,600.17,0.11,0000 0000 0000 0000 000000
2016-11-14 00:37:36,0.00,0.00,0.00,26.72,25.09,27.29,14.20,44.49,1037.14,2040.00,3576.00,3159.34,3584.99,599.81,600.38,0.16,0000 0000 0000 0000 000000
2016-11-14 00:42:37,0.00,0.00,0.00,26.72,25.07,27.58,14.19,44.27,1037.15,2039.99,3575.77,3159.05,3584.56,599.87,600.33,0.21,0000 0000 0000 0000 000000
2016-11-14 00:47:39,-0.00,0.00,0.00,26.50,25.09,27.82,14.24,44.13,1037.20,2039.95,3575.07,3159.01,3584.05,599.66,600.79,0.26,0000 0000 0000 0000 000000
2016-11-14 00:52:40,1.43,0.04,0.00,26.34,25.13,28.08,14.22,44.13,1037.42,2039.37,3550.58,3127.31,3551.47,599.78,601.24,0.31,0000 0000 0000 0000 000000
2016-11-14 00:57:41,2.26,0.22,0.13,26.13,25.19,28.34,14.24,44.22,1037.40,2039.00,3507.60,3072.17,3494.48,599.70,601.56,0.36,0000 0000 0000 0000 000000
2016-11-14 01:02:42,0.05,0.23,1.00,25.92,25.26,28.69,14.40,44.41,1037.40,2038.97,3506.02,3070.16,3492.27,600.08,602.34,0.41,0000 0000 0000 0000 000000
2016-11-14 01:07:43,-0.03,0.23,1.00,25.74,25.35,28.84,14.46,44.29,1037.46,2038.44,3505.31,3069.69,3491.72,599.97,602.79,0.46,0000 0000 0000 0000 000000
2016-11-14 01:12:45,0.01,0.23,1.00,25.59,25.45,28.96,14.47,44.54,1037.28,2038.02,3504.89,3069.02,3490.91,600.07,602.95,0.51,0000 0000 0000 0000 000000
2016-11-14 01:17:46,0.04,0.23,1.00,25.48,25.55,29.07,14.41,44.51,1037.20,2037.98,3504.11,3068.50,3490.10,599.92,602.85,0.56,0000 0000 0000 0000 000000
2016-11-14 01:22:48,-0.03,0.23,1.00,25.40,25.65,29.17,14.41,44.67,1037.16,2037.62,3503.75,3068.01,3489.62,599.86,603.01,0.62,0000 0000 0000 0000 000000
2016-11-14 01:27:49,0.00,0.23,0.83,25.33,25.76,29.27,14.44,44.70,1037.27,2037.05,3503.02,3067.42,3489.01,599.84,603.22,0.67,0000 0000 0000 0000 000000
2016-11-14 01:32:51,0.03,0.23,0.00,25.30,25.86,29.38,14.52,44.84,1037.21,2036.99,3502.23,3066.92,3488.25,600.16,603.59,0.72,0000 0000 0000 0000 000000
2016-11-14 01:37:52,-0.03,0.23,0.00,25.24,25.97,29.46,14.47,44.90,1037.18,2036.51,3501.65,3066.13,3487.73,600.18,603.62,0.77,0000 0000 0000 0000 000000
2016-11-14 01:42:53,0.02,0.23,0.00,25.19,26.07,29.55,14.53,44.87,1037.35,2036.02,3500.71,3065.61,3487.02,599.83,603.72,0.82,0000 0000 0000 0000 000000
2016-11-14 01:47:54,0.03,0.23,0.00,25.15,26.17,29.64,14.49,44.79,1037.34,2035.98,3499.78,3064.84,3486.25,599.82,603.62,0.87,0000 0000 0000 0000 000000
2016-11-14 01:52:55,-0.04,0.23,0.00,25.09,26.26,29.73,14.53,44.83,1037.16,2035.34,3499.07,3064.06,3485.33,600.12,603.87,0.92,0000 0000 0000 0000 000000
2016-11-14 01:57:57,0.03,0.23,0.00,25.07,26.35,29.83,14.50,45.08,1037.17,2035.00,3498.66,3063.63,3484.51,599.83,603.68,0.97,0000 0000 0000 0000 000000
2016-11-14 02:02:58,0.00,0.23,0.00,25.03,26.44,29.91,14.57,44.92,1037.14,2034.86,3497.95,3062.98,3483.78,600.20,604.21,1.02,0000 0000 0000 0000 000000
2016-11-14 02:07:59,-0.02,0.23,0.00,25.00,26.52,30.02,14.57,44.94,1037.13,2034.10,3497.09,3062.14,3483.00,600.01,604.00,1.07,0000 0000 0000 0000 000000
2016-11-14 02:13:00,0.02,0.23,0.00,24.98,26.59,30.11,14.48,44.94,1037.08,2034.00,3496.59,3061.86,3482.20,599.75,603.75,1.12,0000 0000 0000 0000 000000
2016-11-14 02:18:01,0.02,0.23,0.00,25.00,26.66,30.17,14.60,44.92,1036.93,2033.96,3495.93,3061.10,3481.90,600.16,603.99,1.17,0000 0000 0000 0000 000000
2016-11-14 02:23:03,-0.04,0.23,0.00,24.95,26.73,30.24,14.46,44.95,1036.68,2033.24,3495.23,3060.82,3481.07,599.89,603.82,1.22,0000 0000 0000 0000 000000
2016-11-14 02:28:04,0.02,0.23,0.00,24.93,26.79,30.28,14.56,44.94,1036.66,2033.00,3494.96,3060.06,3480.42,599.43,603.28,1.27,0000 0000 0000 0000 000000
2016-11-14 02:33:05,0.02,0.23,0.00,24.96,26.85,30.31,14.57,44.95,1036.66,2032.94,3494.13,3059.80,3479.96,599.91,603.68,1.32,0000 0000 0000 0000 000000
2016-11-14 02:38:06,-0.01,0.23,0.00,24.93,26.90,30.36,14.61,45.06,1036.64,2032.51,3493.45,3059.04,3479.15,600.37,604.01,1.37,0000 0000 0000 0000 000000
2016-11-14 02:43:08,-0.00,0.23,0.00,24.91,26.95,30.39,14.58,45.07,1036.64,2032.07,3492.83,3058.76,3478.86,599.92,603.89,1.42,0000 0000 0000 0000 000000
2016-11-14 02:48:09,0.04,0.23,0.00,24.90,27.00,30.41,14.59,45.16,1036.57,2032.00,3491.80,3057.91,3477.89,600.11,603.99,1.47,0000 0000 0000 0000 000000
2016-11-14 02:53:10,0.09,0.24,0.00,24.88,27.04,30.44,14.56,45.17,1036.19,2032.00,3490.16,3056.74,3476.57,599.73,603.51,1.52,0000 0000 0000 0000 000000
2016-11-14 02:58:12,0.08,0.24,0.00,24.88,27.09,30.47,14.69,45.18,1036.19,2031.93,3488.05,3055.33,3474.77,600.47,604.11,1.57,0000 0000 0000 0000 000000
2016-11-14 03:03:13,0.05,0.25,0.00,24.86,27.13,30.49,14.56,45.09,1036.17,2031.51,3485.97,3053.76,3472.99,599.43,603.39,1.62,0000 0000 0000 0000 000000
2016-11-14 03:08:14,0.08,0.25,0.00,24.87,27.16,30.51,14.60,45.02,1036.15,2031.05,3483.47,3052.07,3471.08,600.17,603.90,1.67,0000 0000 0000 0000 000000
2016-11-14 03:13:16,0.12,0.25,0.00,24.87,27.20,30.52,14.66,45.55,1036.10,2031.00,3480.84,3050.25,3469.00,600.21,603.92,1.72,0000 0000 0000 0000 000000
2016-11-14 03:18:17,0.13,0.26,0.00,24.85,27.22,30.53,14.59,45.16,1035.84,2031.00,3477.84,3048.17,3466.53,599.82,603.37,1.77,0000 0000 0000 0000 000000
2016-11-14 03:23:18,0.13,0.27,0.00,24.85,27.26,30.55,14.58,45.23,1035.84,2030.96,3474.84,3046.12,3464.15,600.25,603.86,1.82,0000 0000 0000 0000 000000
2016-11-14 03:28:20,0.12,0.28,0.00,24.87,27.28,30.57,14.58,45.17,1035.71,2030.86,3471.89,3044.13,3461.79,599.98,603.40,1.87,0000 0000 0000 0000 000000
2016-11-14 03:33:21,0.07,0.28,0.00,24.83,27.31,30.57,14.60,44.99,1035.70,2030.26,3468.82,3042.01,3459.32,599.90,603.44,1.92,0000 0000 0000 0000 000000
2016-11-14 03:38:22,0.13,0.29,0.00,24.84,27.34,30.59,14.50,45.06,1035.67,2030.03,3465.68,3039.82,3456.74,599.77,603.15,1.97,0000 0000 0000 0000 000000
2016-11-14 03:43:24,0.16,0.29,0.00,24.84,27.36,30.60,14.62,45.42,1035.66,2030.01,3462.31,3037.41,3454.10,599.78,603.24,2.02,0000 0000 0000 0000 000000
2016-11-14 03:48:25,0.16,0.30,0.00,24.80,27.38,30.63,14.66,45.33,1035.55,2030.00,3458.73,3034.96,3451.29,600.10,603.58,2.07,0000 0000 0000 0000 000000
2016-11-14 03:53:26,0.16,0.31,0.00,24.77,27.40,30.64,14.60,45.17,1035.51,2029.99,3455.07,3032.44,3448.34,599.97,603.39,2.12,0000 0000 0000 0000 000000
2016-11-14 03:58:27,0.17,0.32,0.00,24.74,27.42,30.66,14.57,45.26,1035.26,2029.95,3451.33,3029.85,3445.33,599.57,603.07,2.17,0000 0000 0000 0000 000000
2016-11-14 04:03:28,0.15,0.33,0.00,24.77,27.45,30.67,14.62,45.38,1035.39,2029.93,3447.72,3027.43,3442.56,599.87,603.26,2.22,0000 0000 0000 0000 000000
2016-11-14 04:08:29,0.14,0.33,0.00,24.77,27.46,30.69,14.59,45.44,1035.46,2029.67,3444.02,3024.97,3439.68,600.10,603.58,2.27,0000 0000 0000 0000 000000
2016-11-14 04:13:31,0.15,0.34,0.00,24.78,27.47,30.70,14.50,45.13,1035.19,2029.58,3440.56,3022.63,3436.97,600.20,603.47,2.32,0000 0000 0000 0000 000000
2016-11-14 04:18:32,0.10,0.35,0.00,24.76,27.50,30.70,14.65,45.58,1035.16,2029.22,3437.15,3020.32,3434.31,600.47,603.77,2.37,0000 0000 0000 0000 000000
2016-11-14 04:23:34,0.15,0.35,0.00,24.75,27.51,30.73,14.50,45.13,1035.09,2029.02,3433.60,3017.80,3431.47,599.72,603.03,2.42,0000 0000 0000 0000 000000
2016-11-14 04:28:35,0.15,0.36,0.00,24.76,27.52,30.75,14.53,45.33,1034.84,2029.01,3430.19,3015.50,3428.83,599.57,602.72,2.47,0000 0000 0000 0000 000000
2016-11-14 04:33:36,0.17,0.37,0.00,24.73,27.55,30.77,14.59,45.38,1034.72,2029.00,3426.67,3013.02,3425.96,600.06,603.08,2.52,0000 0000 0000 0000 000000
2016-11-14 04:38:37,0.17,0.38,0.00,24.72,27.56,30.79,14.61,45.38,1034.68,2029.00,3423.04,3010.42,3423.00,600.05,603.15,2.57,0000 0000 0000 0000 000000
2016-11-14 04:43:38,0.17,0.39,0.00,24.72,27.57,30.80,14.61,45.38,1034.68,2029.00,3419.44,3007.93,3420.07,599.99,603.28,2.62,0000 0000 0000 0000 000000
2016-11-14 04:48:39,0.16,0.40,0.00,24.70,27.59,30.82,14.56,45.34,1034.68,2029.00,3415.91,3005.54,3417.23,599.97,603.13,2.67,0000 0000 0000 0000 000000
2016-11-14 04:53:40,0.19,0.40,0.00,24.73,27.60,30.84,14.55,45.42,1034.68,2029.00,3412.15,3002.88,3414.20,599.68,602.79,2.72,0000 0000 0000 0000 000000
2016-11-14 04:58:42,0.18,0.42,0.00,24.70,27.62,30.85,14.57,45.33,1034.66,2029.00,3407.70,2999.83,3410.78,599.91,602.97,2.77,0000 0000 0000 0000 000000
2016-11-14 05:03:43,0.16,0.42,0.00,24.67,27.63,30.87,14.63,45.34,1034.67,2028.98,3404.28,2997.34,3407.99,599.80,603.04,2.82,0000 0000 0000 0000 000000
2016-11-14 05:08:44,0.15,0.43,0.00,24.66,27.65,30.88,14.54,45.59,1034.55,2028.98,3401.07,2995.01,3405.33,600.03,603.19,2.87,0000 0000 0000 0000 000000
2016-11-14 05:13:45,0.14,0.44,0.00,24.67,27.66,30.89,14.65,45.38,1034.28,2028.97,3397.89,2992.68,3402.65,600.07,603.06,2.92,0000 0000 0000 0000 000000
2016-11-14 05:18:46,0.13,0.45,0.00,24.64,27.67,30.91,14.58,45.47,1034.30,2028.96,3394.93,2990.59,3400.22,600.01,602.85,2.97,0000 0000 0000 0000 000000
2016-11-14 05:23:47,0.12,0.45,0.00,24.65,27.70,30.91,14.51,45.08,1034.65,2028.89,3392.12,2988.58,3397.90,599.74,602.97,3.03,0000 0000 0000 0000 000000
2016-11-14 05:28:49,0.12,0.46,0.00,24.65,27.71,30.93,14.52,45.22,1034.67,2028.71,3389.31,2986.40,3395.42,599.67,602.93,3.08,0000 0000 0000 0000 000000
2016-11-14 05:33:50,0.10,0.47,0.00,24.61,27.72,30.95,14.64,45.35,1034.66,2028.40,3386.47,2984.34,3393.05,599.96,603.29,3.13,0000 0000 0000 0000 000000
2016-11-14 05:38:52,0.11,0.47,0.00,24.36,27.74,30.98,14.63,45.39,1034.55,2028.25,3383.75,2982.42,3391.01,599.92,603.72,3.18,0000 0000 0000 0000 000000
2016-11-14 05:43:53,0.11,0.48,0.00,24.24,27.76,30.97,14.62,45.50,1034.29,2028.21,3381.16,2980.56,3389.01,599.66,603.61,3.23,0000 0000 0000 0000 000000
2016-11-14 05:48:54,0.12,0.48,0.00,24.33,27.78,30.96,14.66,45.51,1034.21,2028.09,3378.49,2978.68,3386.83,600.20,603.83,3.28,0000 0000 0000 0000 000000
2016-11-14 05:53:55,0.13,0.49,0.00,24.31,27.81,31.00,14.64,45.29,1034.20,2028.03,3375.82,2976.70,3384.51,599.87,603.51,3.33,0000 0000 0000 0000 000000
2016-11-14 05:58:56,0.13,0.50,0.00,24.15,27.84,31.08,14.65,45.43,1034.19,2028.00,3373.10,2974.69,3382.27,599.76,603.73,3.38,0000 0000 0000 0000 000000
2016-11-14 06:03:58,0.13,0.50,0.00,24.02,27.86,31.13,14.66,45.51,1034.17,2028.00,3370.49,2972.72,3380.10,599.62,603.95,3.43,0000 0000 0000 0000 000000
2016-11-14 06:08:59,0.12,0.51,0.00,23.92,27.88,31.18,14.67,45.38,1034.02,2028.00,3367.94,2970.85,3377.93,600.06,604.42,3.48,0000 0000 0000 0000 000000
2016-11-14 06:14:00,0.13,0.52,0.00,23.83,27.90,31.21,14.72,45.68,1033.73,2027.99,3365.34,2968.84,3375.66,600.34,604.71,3.53,0000 0000 0000 0000 000000
2016-11-14 06:19:01,0.12,0.52,0.00,23.81,27.91,31.26,14.64,45.40,1033.71,2027.97,3362.78,2966.95,3373.48,599.83,604.19,3.58,0000 0000 0000 0000 000000
2016-11-14 06:24:02,0.12,0.53,0.00,23.76,27.93,31.30,14.67,45.58,1033.71,2027.97,3360.27,2965.11,3371.33,600.03,604.53,3.63,0000 0000 0000 0000 000000
2016-11-14 06:29:04,0.11,0.53,0.00,23.74,27.95,31.33,14.74,45.48,1033.68,2027.94,3357.83,2963.29,3369.29,599.92,604.38,3.68,0000 0000 0000 0000 000000
2016-11-14 06:34:05,0.11,0.54,0.00,23.74,27.97,31.38,14.81,45.63,1033.57,2027.79,3355.36,2961.51,3367.25,600.40,604.87,3.73,0000 0000 0000 0000 000000
2016-11-14 06:39:06,0.08,0.55,0.00,23.65,27.99,31.40,14.73,45.38,1033.67,2027.53,3352.95,2959.71,3365.16,599.75,604.67,3.78,0000 0000 0000 0000 000000
2016-11-14 06:44:07,0.11,0.55,0.00,23.63,28.01,31.42,14.75,45.44,1033.71,2027.14,3350.38,2957.75,3363.04,600.29,604.91,3.83,0000 0000 0000 0000 000000
2016-11-14 06:49:09,0.11,0.56,0.00,23.65,28.02,31.45,14.69,45.56,1033.68,2027.08,3347.97,2955.97,3360.99,599.76,604.55,3.88,0000 0000 0000 0000 000000
2016-11-14 06:54:10,0.12,0.56,0.00,23.60,28.05,31.47,14.78,45.71,1033.56,2027.05,3345.40,2954.03,3358.79,600.47,605.22,3.93,0000 0000 0000 0000 000000
2016-11-14 06:59:11,0.13,0.57,0.00,23.58,28.06,31.49,14.63,45.67,1033.25,2027.03,3342.93,2952.01,3356.47,599.70,604.27,3.98,0000 0000 0000 0000 000000
2016-11-14 07:04:13,0.15,0.58,0.00,23.51,28.08,31.50,14.80,45.61,1033.22,2027.01,3340.29,2949.79,3353.94,600.02,604.72,4.03,0000 0000 0000 0000 000000
2016-11-14 07:09:14,0.12,0.58,0.00,23.54,28.10,31.53,14.66,45.63,1033.22,2027.00,3337.59,2947.68,3351.47,599.29,603.96,4.08,0000 0000 0000 0000 000000
2016-11-14 07:14:15,0.12,0.59,0.00,23.50,28.11,31.54,14.80,45.77,1033.20,2027.00,3335.31,2945.92,3349.44,600.34,605.08,4.13,0000 0000 0000 0000 000000
2016-11-14 07:19:16,0.11,0.59,0.00,23.35,28.12,31.52,14.73,45.59,1033.14,2027.00,3332.95,2944.13,3347.39,599.69,604.80,4.18,0000 0000 0000 0000 000000
2016-11-14 07:24:17,0.11,0.60,0.00,23.36,28.14,31.54,14.73,45.41,1033.13,2026.99,3330.64,2942.39,3345.36,600.09,604.99,4.23,0000 0000 0000 0000 000000
2016-11-14 07:29:19,0.12,0.61,0.00,23.40,28.15,31.55,14.82,45.79,1033.02,2026.99,3328.36,2940.58,3343.34,600.53,605.37,4.28,0000 0000 0000 0000 000000
2016-11-14 07:34:20,0.11,0.61,0.00,23.35,28.15,31.55,14.69,45.78,1032.94,2026.99,3326.24,2938.84,3341.34,599.74,604.70,4.33,0000 0000 0000 0000 000000
2016-11-14 07:39:21,0.12,0.62,0.00,23.20,28.15,31.54,14.82,45.85,1032.75,2026.99,3323.95,2936.94,3339.15,599.96,605.02,4.38,0000 0000 0000 0000 000000
2016-11-14 07:44:22,0.12,0.62,0.00,23.18,28.15,31.53,14.85,45.71,1032.74,2026.98,3321.58,2935.01,3336.99,600.26,605.45,4.43,0000 0000 0000 0000 000000
2016-11-14 07:49:24,0.12,0.63,0.00,23.21,28.15,31.53,14.79,45.91,1032.73,2026.97,3319.28,2933.00,3334.81,600.39,605.39,4.48,0000 0000 0000 0000 000000
2016-11-14 07:54:25,0.10,0.64,0.00,23.15,28.15,31.53,14.75,45.58,1032.73,2026.97,3317.19,2931.48,3333.07,599.35,604.55,4.53,0000 0000 0000 0000 000000
2016-11-14 07:59:26,0.10,0.64,0.00,23.07,28.15,31.53,14.72,45.61,1032.73,2026.99,3315.20,2929.95,3331.29,599.92,605.30,4.58,0000 0000 0000 0000 000000
2016-11-14 08:04:27,0.10,0.65,0.00,23.07,28.15,31.50,14.71,45.52,1032.73,2026.98,3313.16,2928.41,3329.52,599.67,605.14,4.63,0000 0000 0000 0000 000000
2016-11-14 08:09:28,0.10,0.65,0.00,23.02,28.13,31.49,14.70,45.50,1032.73,2026.99,3311.25,2926.89,3327.85,599.74,605.02,4.68,0000 0000 0000 0000 000000
2016-11-14 08:14:30,0.08,0.66,0.00,22.94,28.12,31.54,14.80,45.89,1032.73,2026.98,3309.44,2925.56,3326.41,600.11,605.72,4.73,0000 0000 0000 0000 000000
2016-11-14 08:19:31,0.09,0.66,0.00,22.86,28.11,31.58,14.84,46.47,1032.71,2026.99,3307.51,2924.11,3324.72,600.04,605.71,4.78,0000 0000 0000 0000 000000
2016-11-14 08:24:33,0.10,0.67,0.00,22.86,28.10,31.55,14.70,46.22,1032.64,2026.99,3305.55,2922.59,3323.03,599.72,605.55,4.83,0000 0000 0000 0000 000000
2016-11-14 08:29:34,0.09,0.67,0.00,22.90,28.08,31.48,14.90,46.67,1032.68,2026.99,3303.64,2921.17,3321.41,600.32,605.99,4.88,0000 0000 0000 0000 000000
2016-11-14 08:34:35,0.10,0.68,0.00,22.76,28.06,31.60,14.80,46.31,1032.39,2026.99,3301.67,2919.68,3319.73,600.22,605.99,4.93,0000 0000 0000 0000 000000
2016-11-14 08:39:36,0.10,0.68,0.00,22.68,28.05,31.57,14.80,46.41,1032.25,2026.99,3299.64,2918.12,3318.01,599.55,605.40,4.98,0000 0000 0000 0000 000000
2016-11-14 08:44:38,0.10,0.69,0.00,22.74,28.02,31.48,14.82,46.44,1032.25,2027.00,3297.69,2916.66,3316.35,599.99,605.70,5.03,0000 0000 0000 0000 000000
2016-11-14 08:49:39,0.10,0.69,0.00,22.66,28.00,31.53,14.80,46.08,1032.25,2027.01,3295.66,2915.07,3314.51,599.88,605.77,5.08,0000 0000 0000 0000 000000
2016-11-14 08:54:40,0.10,0.70,0.00,22.57,27.98,31.56,14.79,46.20,1032.24,2027.02,3293.69,2913.54,3312.83,599.84,606.01,5.13,0000 0000 0000 0000 000000
2016-11-14 08:59:41,0.09,0.70,0.00,22.61,27.96,31.46,14.90,46.20,1032.24,2027.08,3291.83,2912.26,3311.37,600.39,606.27,5.18,0000 0000 0000 0000 000000
2016-11-14 09:04:43,0.11,0.71,0.00,22.55,27.94,31.49,14.85,46.10,1032.24,2027.18,3290.01,2910.81,3309.77,600.09,606.18,5.23,0000 0000 0000 0000 000000
2016-11-14 09:09:44,0.14,0.71,0.00,22.41,27.91,31.46,14.81,46.03,1032.21,2027.65,3288.15,2909.45,3308.29,599.97,606.33,5.28,0000 0000 0000 0000 000000
2016-11-14 09:14:45,0.10,0.72,0.00,22.47,27.89,31.37,14.86,46.03,1032.02,2027.90,3286.26,2908.05,3306.65,600.09,606.25,5.33,0000 0000 0000 0000 000000
2016-11-14 09:19:46,0.08,0.73,0.00,22.43,27.86,31.38,14.80,45.99,1032.15,2027.96,3284.63,2906.92,3305.34,599.77,606.16,5.38,0000 0000 0000 0000 000000
2016-11-14 09:24:48,0.07,0.73,0.00,22.30,27.83,31.38,14.84,45.98,1032.09,2027.98,3283.16,2905.85,3304.12,600.14,606.41,5.44,0000 0000 0000 0000 000000
2016-11-14 09:29:49,0.09,0.73,0.00,22.32,27.81,31.31,14.80,46.13,1032.10,2027.99,3281.48,2904.70,3302.79,599.76,606.36,5.49,0000 0000 0000 0000 000000
2016-11-14 09:34:50,0.08,0.74,0.00,22.32,27.77,31.25,14.77,45.98,1032.08,2027.99,3279.74,2903.53,3301.45,599.48,605.98,5.54,0000 0000 0000 0000 000000
2016-11-14 09:39:51,0.07,0.74,0.00,22.20,27.75,31.28,14.83,46.11,1031.83,2028.01,3278.17,2902.36,3300.08,599.61,606.20,5.59,0000 0000 0000 0000 000000
2016-11-14 09:44:52,0.09,0.75,0.00,22.24,27.71,31.18,14.77,46.36,1031.80,2028.05,3276.50,2901.09,3298.74,600.03,606.52,5.64,0000 0000 0000 0000 000000
2016-11-14 09:49:53,0.10,0.75,0.00,22.25,27.68,31.15,14.81,46.65,1031.76,2028.14,3274.72,2899.75,3297.23,599.95,606.31,5.69,0000 0000 0000 0000 000000
2016-11-14 09:54:55,0.14,0.76,0.00,22.11,27.66,31.17,14.90,46.89,1031.75,2028.53,3273.03,2898.53,3295.75,600.27,607.00,5.74,0000 0000 0000 0000 000000
2016-11-14 09:59:56,0.10,0.77,0.00,22.13,27.62,31.09,14.77,46.20,1031.75,2028.92,3271.28,2897.22,3294.22,600.09,606.81,5.79,0000 0000 0000 0000 000000
2016-11-14 10:04:57,0.08,0.77,0.00,22.10,27.59,31.04,14.88,46.28,1031.74,2028.98,3269.70,2896.04,3292.90,600.06,606.80,5.84,0000 0000 0000 0000 000000
2016-11-14 10:09:59,0.08,0.77,0.00,21.97,27.56,31.04,14.95,46.33,1031.75,2028.99,3268.11,2894.89,3291.57,600.39,607.44,5.89,0000 0000 0000 0000 000000
2016-11-14 10:15:00,0.08,0.78,0.00,22.00,27.53,30.99,14.90,46.17,1031.75,2029.00,3266.63,2893.78,3290.35,600.22,607.21,5.94,0000 0000 0000 0000 000000
2016-11-14 10:20:01,0.07,0.78,0.00,21.97,27.50,30.98,14.80,46.11,1031.75,2029.00,3265.09,2892.70,3289.05,600.29,607.50,5.99,0000 0000 0000 0000 000000
2016-11-14 10:25:03,0.09,0.78,0.00,21.88,27.47,30.98,14.93,46.53,1031.71,2029.10,3263.62,2891.64,3287.88,600.68,607.83,6.04,0000 0000 0000 0000 000000
2016-11-14 10:30:04,0.10,0.79,0.00,21.90,27.44,30.91,14.88,46.52,1031.50,2029.28,3262.16,2890.48,3286.56,600.11,607.13,6.09,0000 0000 0000 0000 000000
2016-11-14 10:35:05,0.11,0.80,0.00,21.89,27.41,30.86,14.87,46.10,1031.36,2029.86,3260.69,2889.47,3285.37,599.86,606.79,6.14,0000 0000 0000 0000 000000
2016-11-14 10:40:06,0.08,0.80,0.00,21.79,27.38,30.84,14.85,46.64,1031.32,2029.93,3259.11,2888.20,3283.95,600.19,607.33,6.19,0000 0000 0000 0000 000000
2016-11-14 10:45:08,0.07,0.81,0.00,21.80,27.35,30.80,14.78,45.83,1031.51,2029.99,3257.61,2887.14,3282.80,599.35,606.54,6.24,0000 0000 0000 0000 000000
2016-11-14 10:50:09,0.07,0.81,0.00,21.77,27.31,30.77,14.80,45.86,1031.56,2029.99,3256.23,2886.17,3281.59,599.77,607.10,6.29,0000 0000 0000 0000 000000
2016-11-14 10:55:10,0.07,0.81,0.00,21.69,27.29,30.75,14.84,45.78,1031.56,2029.99,3254.74,2885.19,3280.48,599.97,607.40,6.34,0000 0000 0000 0000 000000
2016-11-14 11:00:12,0.06,0.82,0.00,21.69,27.25,30.72,14.84,46.38,1031.39,2030.01,3253.38,2884.28,3279.44,599.94,607.30,6.39,0000 0000 0000 0000 000000
2016-11-14 11:05:13,0.07,0.82,0.00,21.69,27.22,30.68,14.87,46.20,1031.38,2030.03,3251.80,2883.13,3278.17,600.10,607.49,6.44,0000 0000 0000 0000 000000
2016-11-14 11:10:14,0.12,0.82,0.00,21.63,27.19,30.68,14.84,45.97,1031.39,2030.45,3250.54,2882.21,3277.11,599.81,607.31,6.49,0000 0000 0000 0000 000000
2016-11-14 11:15:15,0.09,0.83,0.00,21.65,27.16,30.63,14.88,45.92,1031.35,2030.94,3249.33,2881.37,3276.15,599.76,607.24,6.54,0000 0000 0000 0000 000000
2016-11-14 11:20:16,0.06,0.83,0.00,21.63,27.13,30.59,14.86,46.11,1031.28,2030.99,3247.93,2880.55,3275.12,599.81,607.34,6.59,0000 0000 0000 0000 000000
2016-11-14 11:25:17,0.07,0.84,0.00,21.59,27.10,30.58,14.81,46.13,1031.26,2030.99,3246.48,2879.47,3273.93,599.86,607.40,6.64,0000 0000 0000 0000 000000
2016-11-14 11:30:18,0.06,0.84,0.00,21.57,27.07,30.53,14.81,46.21,1031.22,2031.00,3244.94,2878.66,3272.76,600.41,608.00,6.69,0000 0000 0000 0000 000000
2016-11-14 11:35:20,0.08,0.84,0.00,21.56,27.05,30.52,14.91,46.01,1031.15,2031.03,3243.49,2877.52,3271.55,600.47,607.99,6.74,0000 0000 0000 0000 000000
2016-11-14 11:40:21,0.09,0.85,0.00,21.49,27.02,30.54,14.96,46.23,1031.06,2031.33,3242.14,2876.59,3270.48,600.87,608.53,6.79,0000 0000 0000 0000 000000
2016-11-14 11:45:22,0.11,0.86,0.00,21.51,26.99,30.48,14.87,46.67,1031.10,2031.69,3240.68,2875.57,3269.28,599.97,607.47,6.84,0000 0000 0000 0000 000000
2016-11-14 11:50:23,0.06,0.86,0.00,21.45,26.96,30.46,14.84,46.34,1030.87,2031.87,3239.48,2874.72,3268.28,600.20,607.84,6.89,0000 0000 0000 0000 000000
2016-11-14 11:55:25,0.07,0.86,0.00,21.40,26.94,30.43,14.84,46.17,1030.80,2031.97,3238.05,2873.76,3267.16,599.40,607.04,6.94,0000 0000 0000 0000 000000
2016-11-14 12:00:26,0.07,0.87,0.00,21.39,26.91,30.37,14.90,45.99,1030.81,2031.98,3236.65,2872.78,3266.08,600.31,608.08,6.99,0000 0000 0000 0000 000000
2016-11-14 12:05:28,0.05,0.87,0.00,21.46,26.89,30.34,14.78,45.92,1030.81,2031.99,3235.35,2871.94,3265.03,600.11,607.50,7.04,0000 0000 0000 0000 000000
2016-11-14 12:10:29,0.06,0.87,0.00,21.38,26.86,30.36,14.84,46.19,1030.78,2031.99,3234.09,2871.05,3264.08,600.61,608.29,7.09,0000 0000 0000 0000 000000
2016-11-14 12:15:30,0.07,0.88,0.00,21.35,26.84,30.30,14.83,46.28,1030.78,2032.00,3232.81,2870.12,3263.11,599.53,607.25,7.14,0000 0000 0000 0000 000000
2016-11-14 12:20:31,0.07,0.88,0.00,21.43,26.81,30.30,14.98,47.21,1030.78,2032.01,3231.50,2869.22,3262.16,600.36,607.95,7.19,0000 0000 0000 0000 000000
2016-11-14 12:25:33,0.06,0.88,0.00,21.31,26.80,30.32,14.89,46.43,1030.78,2032.04,3230.29,2868.39,3261.19,600.12,607.85,7.24,0000 0000 0000 0000 000000
2016-11-14 12:30:34,0.08,0.89,0.00,21.31,26.77,30.26,14.79,46.17,1030.78,2032.22,3229.09,2867.63,3260.17,599.87,607.67,7.29,0000 0000 0000 0000 000000
2016-11-14 12:35:35,0.08,0.89,0.00,21.39,26.75,30.22,14.87,46.21,1030.78,2032.63,3227.93,2866.85,3259.35,600.23,607.96,7.34,0000 0000 0000 0000 000000
2016-11-14 12:40:37,0.08,0.89,0.00,21.26,26.73,30.26,14.88,46.10,1030.78,2032.69,3226.62,2865.99,3258.26,600.18,608.09,7.39,0000 0000 0000 0000 000000
2016-11-14 12:45:38,0.07,0.90,0.00,21.26,26.71,30.24,14.81,46.55,1030.78,2032.91,3225.35,2865.09,3257.34,599.73,607.63,7.44,0000 0000 0000 0000 000000
2016-11-14 12:50:39,0.06,0.90,0.00,21.33,26.68,30.21,14.86,46.54,1030.77,2032.95,3224.00,2864.14,3256.23,599.72,607.46,7.49,0000 0000 0000 0000 000000
2016-11-14 12:55:40,0.07,0.91,0.00,21.24,26.66,30.20,14.94,46.67,1030.53,2032.99,3222.65,2863.39,3255.38,600.65,608.39,7.54,0000 0000 0000 0000 000000
2016-11-14 13:00:42,0.06,0.91,0.00,21.23,26.65,30.15,14.82,46.42,1030.39,2032.99,3221.40,2862.42,3254.19,599.84,607.58,7.59,0000 0000 0000 0000 000000
2016-11-14 13:05:43,0.06,0.91,0.00,21.21,26.62,30.16,14.95,46.53,1030.57,2032.99,3220.02,2861.51,3253.10,600.63,608.42,7.64,0000 0000 0000 0000 000000
2016-11-14 13:10:44,0.07,0.92,0.00,21.18,26.60,30.12,14.84,46.27,1030.40,2032.99,3218.71,2860.57,3252.09,599.66,607.51,7.69,0000 0000 0000 0000 000000
2016-11-14 13:15:45,0.06,0.92,0.00,21.19,26.57,30.11,14.76,46.29,1030.33,2033.03,3217.44,2859.75,3251.08,599.25,607.03,7.74,0000 0000 0000 0000 000000
2016-11-14 13:20:46,0.06,0.92,0.00,21.18,26.56,30.11,14.91,46.58,1030.33,2033.11,3216.14,2858.82,3250.06,600.34,608.10,7.79,0000 0000 0000 0000 000000